Torna al catalogo

STARLINK-35529

AttivoComunicazioniVLEO
NORAD 66259·PAYLOAD·🇺🇸 United States

Lanciato Oct 29, 2025 da Cape Canaveral Space Force Station

Loading…

Prossimi Passaggi (prossime 24 ore)

TLE

AggiornatoSource: CelesTrak SupGP

Epoca: Sep 15, 2026, 04:15 UTC

1 66259C 25245AB  26258.17756944  .00011479  00000+0  36910-3 0  2583
2 66259  53.1562 122.6088 0001128  79.5493 289.3654 15.31700115    10

Traccia STARLINK-35529 in tempo reale con AllMySat

Download on the App Store